Weather History for Jacksonville Craig, FL

Change the Weather History Date:

Friday, February 14, 2014

  Actual Average Record
Temperature  
Mean Temperature 51 °F -  
Max Temperature 66 °F 66 °F 82 °F (1997)
Min Temperature 36 °F 46 °F 28 °F (2006)
Degree Days  
Heating Degree Days 14    
Growing Degree Days 1 (Base 50)    
Moisture  
Dew Point 34 °F    
Average Humidity 53    
Maximum Humidity 83    
Minimum Humidity 26    
Precipitation  
Precipitation 0.00 in - - ()
Sea Level Pressure  
Sea Level Pressure 29.98 in    
Wind  
Wind Speed 7 mph (WSW)    
Max Wind Speed 16 mph    
Max Gust Speed 22 mph    
Visibility 10 miles    
Events      
Averages and records for this station are not official NWS values.
T = Trace of Precipitation, MM = Missing Value Source: NWS Daily Summary

Daily Weather History Graph

Daily Weather History Graph

Search for Another Location

Airport:

Trip Planner

Search our weather history database for the weather conditions in past years. The results will help you decide how hot, cold, wet, or windy it might be!

Date:

Astronomy

Feb. 14, 2014 Rise Set
Actual Time 7:07 AM EST 6:13 PM EST
Civil Twilight 6:42 AM EST 6:38 PM EST
Nautical Twilight 6:14 AM EST 7:06 PM EST
Astronomical Twilight 5:46 AM EST 7:34 PM EST
Moon 6:12 PM EST (2/14) 6:35 AM EST (2/14)
Length of Visible Light 11h 55m
Length of Day
11h 06m
Full, 100% of the Moon is Illuminated
Feb 14
Full
Feb 14
Full
Feb 22
Last Quarter
Mar 1
New
Mar 8
First Quarter

Hourly Weather History & Observations

Time (EST) Temp. Windchill Dew Point Humidity Pressure Visibility Wind Dir Wind Speed Gust Speed Precip Events Conditions
12:53 AM 45.0 °F 40.1 °F 37.0 °F 74% 29.96 in 10.0 mi WSW 9.2 mph - N/A   Clear
1:53 AM 44.1 °F 40.1 °F 36.0 °F 73% 29.97 in 10.0 mi West 6.9 mph - N/A   Clear
2:53 AM 44.1 °F 41.5 °F 34.0 °F 68% 29.96 in 10.0 mi West 4.6 mph - N/A   Clear
3:53 AM 42.1 °F - 33.1 °F 70% 29.97 in 10.0 mi Calm Calm - N/A   Clear
4:53 AM 37.0 °F 32.4 °F 30.9 °F 79% 29.98 in 10.0 mi WSW 5.8 mph - N/A   Clear
5:53 AM 37.9 °F - 32.0 °F 79% 30.00 in 10.0 mi Calm Calm - N/A   Clear
6:53 AM 36.0 °F - 30.9 °F 82% 30.03 in 10.0 mi Calm Calm - N/A   Clear
7:53 AM 37.9 °F - 33.1 °F 83% 30.04 in 10.0 mi Calm Calm - N/A   Clear
8:53 AM 48.0 °F - 34.0 °F 58% 30.06 in 10.0 mi NW 5.8 mph - N/A   Clear
9:53 AM 53.1 °F - 34.0 °F 48% 30.06 in 10.0 mi NNW 10.4 mph - N/A   Clear
10:53 AM 57.0 °F - 35.1 °F 44% 30.05 in 10.0 mi WNW 5.8 mph - N/A   Clear
11:53 AM 60.1 °F - 30.9 °F 33% 30.03 in 10.0 mi SW 5.8 mph - N/A   Clear
12:53 PM 62.1 °F - 28.0 °F 28% 30.00 in 10.0 mi SW 11.5 mph 17.3 mph N/A   Clear
1:53 PM 64.0 °F - 30.0 °F 28% 29.97 in 10.0 mi WSW 9.2 mph 20.7 mph N/A   Clear
2:53 PM 64.9 °F - 30.0 °F 27% 29.95 in 10.0 mi SW 11.5 mph 20.7 mph N/A   Clear
3:53 PM 66.0 °F - 30.0 °F 26% 29.93 in 10.0 mi SSW 16.1 mph - N/A   Clear
4:53 PM 64.9 °F - 30.0 °F 27% 29.92 in 10.0 mi SW 15.0 mph 21.9 mph N/A   Clear
5:53 PM 63.0 °F - 32.0 °F 31% 29.93 in 10.0 mi SW 10.4 mph - N/A   Clear
6:53 PM 59.0 °F - 34.0 °F 39% 29.95 in 10.0 mi SW 6.9 mph - N/A   Clear
7:53 PM 59.0 °F - 36.0 °F 42% 29.95 in 10.0 mi SW 8.1 mph - N/A   Clear
8:53 PM 57.0 °F - 37.0 °F 47% 29.94 in 10.0 mi WSW 6.9 mph - N/A   Clear
9:53 PM 55.0 °F - 41.0 °F 59% 29.94 in 10.0 mi SW 9.2 mph - N/A   Clear
10:53 PM 53.1 °F - 41.0 °F 64% 29.92 in 10.0 mi SW 9.2 mph - N/A   Clear
11:53 PM 53.1 °F - 43.0 °F 69% 29.92 in 10.0 mi SW 10.4 mph - N/A   Clear